www.pogodaiklimat.ru

Погода и климат >> Архив погоды >> Россия >> Якутия >> Джарджан


ПОГОДА в Джарджане

  • Прогноз погоды в Джарджане
  • Монитор погоды в Джарджане
  • Климат города

АРХИВ ПОГОДЫ в Джарджане

Время (UTC), дата Ветер
(напр.,м/с)
 
Видим.   Явления Облачность Т
(С)
Тd
(С)
f
(%)
Тe
(С)
Тes
(С)
Комфортность P
(гПа)
Po
(гПа)
Тmin
(С)
Tmax
(С)
R
(мм)
R24
(мм)
S
(см)
03 12.01 штиль 0 50 км ясно -46.4 -49.2 73 -46 -46 опасность
обморожения
1021.2 1015.3
06 12.01 штиль 0 50 км ясно -46.1 -49.2 71 -46 -46 опасность
обморожения
1021.9 1016.0
09 12.01 Ю 2 50 км 6/0
[Ci fib]
-44.9 -48.3 68 -55 -55 опасность
обморожения
1022.9 1017.0
12 12.01 Ю 2 50 км 10/0
[Ci fib]
-43.5 -46.8 70 -53 -53 опасность
обморожения
1023.4 1017.5 -43.5
15 12.01 Ю 2 50 км 3/0
[Ci fib]
-43.0 -46.1 71 -53 -53 опасность
обморожения
1022.8 1016.9
18 12.01 Ю 3 50 км 3/0
[Ci fib]
-42.6 -46.1 68 -55 -55 опасность
обморожения
1022.8 1016.9
21 12.01 Ю 4 50 км 3/0
[Ci fib]
-42.5 -45.5 72 -57 -57 опасность
обморожения
1022.4 1016.5
00 13.01 Ю 5 50 км 3/0
[Ci fib]
-41.8 -44.9 72 -57 -57 опасность
обморожения
1022.3 1016.5 -43.0 24
03 13.01 Ю 6 50 км 4/0
[Ci fib]
-41.6 -44.9 70 -58 -58 опасность
обморожения
1021.6 1015.8
06 13.01 Ю 4 50 км 4/0
[Ci fib]
-41.2 -44.4 71 -55 -55 опасность
обморожения
1021.2 1015.4
09 13.01 Ю 2 50 км 4/0
[Ci fib]
-40.9 -44.4 69 -50 -50 опасность
обморожения
1020.5 1014.8
12 13.01 Ю 2 50 км 3/0
[Ci fib]
-42.2 -45.5 70 -52 -52 опасность
обморожения
1019.7 1014.0 -41.8
15 13.01 штиль 0 50 км 3/0
[Ci fib]
-43.9 -46.8 73 -44 -44 опасность
обморожения
1018.8 1013.0
18 13.01 С 2 50 км 3/0
[Ci fib]
-44.3 -47.5 70 -54 -54 опасность
обморожения
1018.4 1012.6
21 13.01 штиль 0 50 км ясно -46.0 -49.2 70 -46 -46 опасность
обморожения
1017.5 1011.7
00 14.01 штиль 0 50 км ясно -47.0 -50.1 70 -47 -47 опасность
обморожения
1017.2 1011.4 -47.0 24
03 14.01 СВ 2 50 км ясно -47.6 -51.1 67 -58 -58 опасность
обморожения
1017.2 1011.2
06 14.01 СВ 1 50 км 4/0
[Ci fib]
-46.4 -49.2 73 -52 -52 опасность
обморожения
1016.8 1011.0
09 14.01 СВ 2 50 км 4/0
[Ci fib]
-47.2 -50.1 72 -58 -58 опасность
обморожения
1017.0 1011.2
12 14.01 СВ 2 50 км 3/0
[Ci fib]
-47.4 -50.1 74 -58 -58 опасность
обморожения
1017.0 1011.2 -46.4
15 14.01 СВ 1 50 км 8/0
[Ci fib]
-47.0 -50.1 70 -53 -53 опасность
обморожения
1016.5 1010.7
18 14.01 штиль 0 50 км 6/0
[Ci fib]
-47.9 -51.1 69 -48 -48 опасность
обморожения
1015.8 1009.8
21 14.01 С 1 50 км 6/0
[Ci fib]
-47.2 -50.1 72 -53 -53 опасность
обморожения
1015.1 1009.3
00 15.01 штиль 0 50 км 6/0
[Ci fib]
-47.1 -50.1 71 -47 -47 опасность
обморожения
1014.3 1008.5 -47.9 24
03 15.01 штиль 0 50 км 8/0
[Ci fib]
-48.3 -51.1 72 -48 -48 опасность
обморожения
1014.1 1008.1
06 15.01 штиль 0 50 км 8/0
[Ci fib]
-47.5 -51.1 66 -48 -48 опасность
обморожения
1013.6 1007.6
09 15.01 штиль 0 50 км 6/0
[Ci fib]
-47.9 -51.1 69 -48 -48 опасность
обморожения
1013.6 1007.6
12 15.01 штиль 0 50 км 6/0
[Ci fib]
-47.9 -51.1 69 -48 -48 опасность
обморожения
1014.0 1008.0 -47.5
15 15.01 штиль 0 50 км 6/0
[Ci fib]
-48.1 -51.1 71 -48 -48 опасность
обморожения
1013.3 1007.3
18 15.01 штиль 0 50 км 6/0
[Ci fib]
-47.4 -50.1 74 -47 -47 опасность
обморожения
1013.6 1007.8
21 15.01 штиль 0 50 км 10/0
[Ci fib]
-47.4 -50.1 74 -47 -47 опасность
обморожения
1014.2 1008.4
00 16.01 штиль 0 50 км 4/0
[Ci fib]
-47.4 -50.1 74 -47 -47 опасность
обморожения
1014.3 1008.5 -48.3 24
03 16.01 штиль 0 50 км 4/0
[Ci fib]
-46.1 -49.2 71 -46 -46 опасность
обморожения
1014.7 1009.0
06 16.01 штиль 0 50 км 4/0
[Ci fib]
-46.1 -49.2 71 -46 -46 опасность
обморожения
1015.6 1009.8
09 16.01 штиль 0 50 км 10/0
[Ci fib]
-45.8 -49.2 68 -46 -46 опасность
обморожения
1016.8 1011.0
12 16.01 штиль 0 50 км 8/0
[Ci fib]
-46.5 -50.1 66 -47 -47 опасность
обморожения
1018.0 1012.2 -45.8
15 16.01 штиль 0 50 км 10/0
[Ci fib]
-48.0 -51.1 70 -48 -48 опасность
обморожения
1018.5 1012.5
18 16.01 штиль 0 50 км 10/0
[Ci fib]
-48.5 -51.1 74 -49 -49 опасность
обморожения
1018.6 1012.9
21 16.01 С 1 50 км 10/0
[Ci fib]
-44.1 -47.5 69 -50 -50 опасность
обморожения
1018.9 1013.1
00 17.01 штиль 0 50 км 10/0
[Ci fib]
-44.1 -47.5 69 -44 -44 опасность
обморожения
1020.3 1014.5 -48.5 24
03 17.01 штиль 0 50 км 8/0
[Ci fib]
-44.6 -47.5 73 -45 -45 опасность
обморожения
1021.0 1015.2
06 17.01 штиль 0 50 км 8/0
[Ci fib]
-44.9 -48.3 68 -45 -45 опасность
обморожения
1022.1 1016.3
09 17.01 штиль 0 50 км 10/0
[Cs]
-43.7 -46.8 71 -44 -44 опасность
обморожения
1023.5 1017.6
12 17.01 штиль 0 50 км 4/0
[Ci fib]
-45.4 -48.3 72 -45 -45 опасность
обморожения
1024.4 1018.5 -43.7
15 17.01 штиль 0 50 км 4/0
[Ci fib]
-45.5 -48.3 73 -46 -46 опасность
обморожения
1024.9 1019.0
18 17.01 штиль 0 50 км 3/0
[Ci fib]
-46.2 -49.2 71 -46 -46 опасность
обморожения
1025.4 1019.5
21 17.01 штиль 0 50 км 3/0
[Ci fib]
-47.8 -51.1 68 -48 -48 опасность
обморожения
1026.3 1020.3
00 18.01 штиль 0 50 км 3/0
[Ci fib]
-47.6 -51.1 67 -48 -48 опасность
обморожения
1026.3 1020.3 -47.8 24
03 18.01 штиль 0 50 км ясно -44.6 -47.5 73 -45 -45 опасность
обморожения
1026.5 1020.6
06 18.01 штиль 0 50 км ясно -46.7 -50.1 68 -47 -47 опасность
обморожения
1026.9 1021.0
09 18.01 штиль 0 50 км 6/0
[Ci fib]
-46.0 -49.2 70 -46 -46 опасность
обморожения
1027.5 1021.6
12 18.01 С 2 50 км 8/0
[Ci fib]
-42.8 -46.1 70 -52 -52 опасность
обморожения
1028.1 1022.2 -42.8
15 18.01 С 2 50 км 10/0
[Ci fib]
-39.3 -42.9 68 -48 -48 опасность
обморожения
1028.3 1022.5
18 18.01 С 3 50 км 8/0
[Ci fib]
-37.5 -41.1 69 -49 -49 опасность
обморожения
1030.0 1024.2
21 18.01 С 2 50 км 8/0
[Ci fib]
-37.0 -40.4 70 -46 -46 опасность
обморожения
1030.7 1025.0
00 19.01 С 3 50 км 8/0
[Ci fib]
-36.5 -40.0 70 -47 -47 опасность
обморожения
1032.1 1026.4 -39.3 24

 

Местоположение метеостанции Джарджан (Якутия, Россия): широта 68.73 долгота 124.00 высота над уровнем моря 39 м.

В архиве по умолчанию представлена погода в Джарджане за последнюю неделю. Архивные данные за месяц целиком и за предыдущие месяцы, начиная с января 2011 года, Вы можете получить, выбрав интересующий диапазон дат из раскрывающегося списка и нажав кнопку "Ввод!".

Внимание! Время в таблицах - всемирное. Для получения местного времени необходимо прибавить поправку, которая в Джарджане равна 9 ч.

Смотрите также архив погоды в соседних городах и на ближайших метеорологических станциях:

Погода в Жиганске (Якутия, Россия) (219 км)
Погода в Сухане (Якутия, Россия) (231 км)
Погода в Кюсюре (Якутия, Россия) (253 км)
Погода в Батагай-Алыте (Якутия, Россия) (284 км)
Погода в Тюмяти (Якутия, Россия) (355 км)
Погода в Тикси (Якутия, Россия) (367 км)
Погода в Бестяхской Звероферме (Якутия, Россия) (382 км)
Погода в Екюччю (Якутия, Россия) (387 км)
Погода в Верхоянске (Якутия, Россия) (409 км)
Погода на Мысе Быков (Якутия, Россия) (410 км)

Пояснения к столбцам:

Ветер - указаны скорость ветра в м/с - средняя за 10 мин, порывы в срок и между сроками (в фигурных скобках) и направление, откуда дует ветер: С - северный, СВ - северо-восточный, В - восточный, ЮВ - юго-восточный, Ю - южный, ЮЗ - юго-западный, З - западный, СЗ - северо-западный.
Видимость - горизонтальная дальность видимости в метрах или километрах. При видимости от 1 до 10 км при отсутствии осадков обычно наблюдается дымка, при ухудшении видимости до 1 км и менее - туман. В сухую погоду видимость может ухудшаться дымом, пылью или мглою.
Явления - указаны атмосферные явления, наблюдавшиеся в срок или в последний час перед сроком; фигурными скобками обозначены явления, наблюдавшиеся между сроками (за 1-3 часа до срока); квадратными скобками обозначены град или гололедные отложения с указанием их диаметра в мм.
Облачность - указаны через наклонную черту общая и нижняя облачность в баллах и высота нижней границы облаков в метрах; квадратными скобками обозначены формы облаков: Ci - перистые, Cs - перисто-слоистые, Cc - перисто-кучевые, Ac - высококучевые, As - высокослоистые, Sc - слоисто-кучевые, Ns - слоисто-дождевые, Cu - кучевые, Cb - кучево-дождевые. Подробнее классификацию облаков см. в Атласе облаков (PDF).
T - Температура воздуха - температура, измеренная на высоте 2 м над землей.
Td - Температура точки росы - температура, при понижении до которой содержащийся в воздухе водяной пар достигнет насыщения.
f - Относительная влажность воздуха - влажноcть воздуха, измеренная на высоте 2 м над землей.
Te - Эффективная температура - температура, которую ощущает одетый по сезону человек в тени. Характеристика душности погоды. При расчете учитывается влияние влажности воздуха и скорости ветра на теплоощущения человека.
Tes - Эффективная температура на солнце - температура, которую ощущает человек, с поправкой на солнечный нагрев. Характеристика знойности погоды. Зависит от высоты солнца над горизонтом, облачности и скорости ветра. Ночью, в пасмурную погоду, а также при ветре 12 м/с и более поправка равна нулю.
P - Атмосферное давление - приведенное к уровню моря атмосферное давление.
Po - Атмосферное давление - измеренное на уровне метеостанции атмосферное давление.
Tmin - Минимальная температура - минимум температуры воздуха на высоте 2 м над землей.
Tmax - Максимальная температура - максимум температуры воздуха на высоте 2 м над землей.
R - Количество осадков - Количество выпавших осадков за период времени, мм. При наведении курсора мыши на число - период времени, за который выпало указанное количество осадков.
R24 - Количество осадков - Количество выпавших осадков за 24 часа, мм.
S - Снежный покров - Высота снежного покрова, см. При наведении курсора мыши на число - состояние снежного покрова и степень покрытия местности в баллах.